This is the latest recevied weather packets stored in our database for station/object W4ZHA. If no packets are shown the sender has not sent any weather packets the latest 10 day(s).
| Time | Temp. | Humidity | Pressure | Rain* | Wind** | Luminosity | Snow |
|---|---|---|---|---|---|---|---|
| 1787865095 | 33.89° C | 47% | 1013.4 hPa | 0 mm | - | 392 W/m² | - |
| 1787864791 | 32.78° C | 45% | 1013.8 hPa | 0 mm | - | 411 W/m² | - |
| 1787864486 | 32.22° C | 45% | 1013.8 hPa | 0 mm | - | 426 W/m² | - |
| 1787864185 | 32.22° C | 45% | 1013.8 hPa | 0 mm | - | 431 W/m² | - |
| 1787863880 | 32.78° C | 45% | 1013.8 hPa | 0 mm | - | 416 W/m² | - |
| 1787863572 | 32.78° C | 45% | 1013.8 hPa | 0 mm | - | 430 W/m² | - |
| 1787863268 | 33.89° C | 47% | 1013.8 hPa | 0 mm | - | 440 W/m² | - |
| 1787862963 | 32.78° C | 45% | 1013.8 hPa | 0 mm | - | 439 W/m² | - |
| 1787862658 | 33.33° C | 47% | 1014.1 hPa | 0 mm | - | 457 W/m² | - |
| 1787862353 | 33.33° C | 47% | 1014.1 hPa | 0 mm | - | 434 W/m² | - |
| 1787862049 | 33.89° C | 47% | 1014.1 hPa | 0 mm | - | 437 W/m² | - |
| 1787861748 | 32.78° C | 47% | 1014.1 hPa | 0 mm | - | 446 W/m² | - |
| 1787861446 | 33.89° C | 47% | 1014.4 hPa | 0 mm | - | 445 W/m² | - |
| 1787861141 | 33.33° C | 47% | 1014.1 hPa | 0 mm | - | 450 W/m² | - |
| 1787860840 | 33.33° C | 47% | 1014.1 hPa | 0 mm | - | 457 W/m² | - |
| 1787860535 | 33.89° C | 47% | 1014.1 hPa | 0 mm | - | 457 W/m² | - |
| 1787860231 | 33.33° C | 45% | 1014.1 hPa | 0 mm | - | 461 W/m² | - |
| 1787859926 | 33.89° C | 47% | 1014.4 hPa | 0 mm | - | 476 W/m² | - |
| 1787859621 | 32.78° C | 47% | 1014.4 hPa | 0 mm | - | 469 W/m² | - |
| 1787859320 | 32.78° C | 45% | 1014.4 hPa | 0 mm | - | 114 W/m² | - |
| 1787859017 | 32.22° C | 48% | 1014.4 hPa | 0 mm | - | 475 W/m² | - |
| 1787858713 | 32.22° C | 51% | 1014.4 hPa | 0 mm | - | 204 W/m² | - |
| 1787858408 | 33.33° C | 47% | 1014.4 hPa | 0 mm | - | 167 W/m² | - |
| 1787858108 | 32.22° C | 53% | 1014.4 hPa | 0 mm | - | 524 W/m² | - |
| 1787857803 | 31.67° C | 53% | 1014.4 hPa | 0 mm | - | 498 W/m² | - |
* Rain latest hour (hover to see other rain measurements)
** Current wind speed in m/s (hover to see current wind gust speed)